Location: Sandbach
(53.1410°N, 2.3660°W)
Time: 14:22:52
(UTC+00:00)

ISS - Pass Details

Date: 07 December 2021
Orbit: 413 x 422 km, 51.6° (Epoch: 18 January)

Event Time Altitude Azimuth Distance (km) Brightness Sun altitude
Rises 17:38:43 0° 278° (W) 2,385 1.3 -14.7°
Reaches altitude 10° 17:41:22 10° 257° (WSW) 1,514 0.5 -15.1°
Maximum altitude 17:43:35 17° 216° (SW) 1,174 -0.8 -15.4°
Drops below altitude 10° 17:45:48 10° 175° (S) 1,505 -0.8 -15.8°
Enters shadow 17:49:15 -3° 150° (SSE) 2,673 0.2 -16.3°
